Time,TemperatureF,DewpointF,PressureIn,WindDirection,WindDirectionDegrees,WindSpeedMPH,WindSpeedGustMPH,Humidity,HourlyPrecipIn,Conditions,Clouds,dailyrainin,SoftwareType,DateUTC
2013-03-19 00:02:00,29.0,19.0,-100.00,WNW,300,0.0,0.0,66,-99.99,,,-99.99,,2013-03-19 05:02:00,
2013-03-19 00:12:00,29.0,19.0,-100.00,WNW,300,0.0,0.0,66,-99.99,,,-99.99,,2013-03-19 05:12:00,
2013-03-19 00:22:00,29.0,19.0,-100.00,WNW,285,0.0,0.0,67,-99.99,,,-99.99,,2013-03-19 05:22:00,
2013-03-19 00:32:00,29.0,19.0,-100.00,WNW,285,0.0,0.0,67,-99.99,,,-99.99,,2013-03-19 05:32:00,
2013-03-19 00:43:00,28.0,19.0,-100.00,WNW,290,0.0,0.0,67,-99.99,,,-99.99,,2013-03-19 05:43:00,
2013-03-19 00:52:00,28.0,19.0,-100.00,WNW,285,0.0,0.0,68,-99.99,,,-99.99,,2013-03-19 05:52:00,
2013-03-19 01:02:00,28.0,19.0,-100.00,WNW,285,0.0,0.0,68,-99.99,,,-99.99,,2013-03-19 06:02:00,
2013-03-19 01:12:00,28.0,19.0,-100.00,WNW,295,0.0,0.0,69,-99.99,,,-99.99,,2013-03-19 06:12:00,
2013-03-19 01:22:00,28.0,19.0,-100.00,WNW,295,0.0,0.0,69,-99.99,,,-99.99,,2013-03-19 06:22:00,
2013-03-19 01:32:00,28.0,19.0,-100.00,WNW,295,0.0,0.0,69,-99.99,,,-99.99,,2013-03-19 06:32:00,
2013-03-19 01:42:00,28.0,19.0,-100.00,WNW,290,0.0,0.0,69,-99.99,,,-99.99,,2013-03-19 06:42:00,
2013-03-19 01:52:00,27.0,19.0,-100.00,WNW,285,0.0,0.0,69,-99.99,,,-99.99,,2013-03-19 06:52:00,
2013-03-19 02:02:00,27.0,19.0,-100.00,WNW,285,0.0,0.0,69,-99.99,,,-99.99,,2013-03-19 07:02:00,
2013-03-19 02:12:00,27.0,19.0,-100.00,WNW,285,0.0,0.0,69,-99.99,,,-99.99,,2013-03-19 07:12:00,
2013-03-19 02:21:00,27.0,19.0,-100.00,WNW,285,0.0,0.0,69,-99.99,,,-99.99,,2013-03-19 07:21:00,
2013-03-19 02:32:00,27.0,19.0,-100.00,WNW,285,0.0,0.0,69,-99.99,,,-99.99,,2013-03-19 07:32:00,
2013-03-19 02:42:00,27.0,19.0,-100.00,WNW,290,0.0,0.0,69,-99.99,,,-99.99,,2013-03-19 07:42:00,
2013-03-19 02:53:00,27.0,18.0,-100.00,WNW,295,0.0,0.0,69,-99.99,,,-99.99,,2013-03-19 07:53:00,
2013-03-19 03:03:00,27.0,18.0,-100.00,WNW,295,0.0,0.0,69,-99.99,,,-99.99,,2013-03-19 08:03:00,
2013-03-19 03:12:00,27.0,18.0,-100.00,WNW,300,0.0,0.0,69,-99.99,,,-99.99,,2013-03-19 08:12:00,
2013-03-19 03:22:00,27.0,18.0,-100.00,NW,305,0.0,0.0,69,-99.99,,,-99.99,,2013-03-19 08:22:00,
2013-03-19 03:32:00,27.0,18.0,-100.00,NW,305,0.0,0.0,69,-99.99,,,-99.99,,2013-03-19 08:32:00,
2013-03-19 03:42:00,26.0,18.0,-100.00,NW,310,0.0,0.0,69,-99.99,,,-99.99,,2013-03-19 08:42:00,
2013-03-19 03:52:00,26.0,18.0,-100.00,NW,310,0.0,0.0,73,-99.99,,,-99.99,,2013-03-19 08:52:00,
2013-03-19 04:02:00,26.0,18.0,-100.00,NW,310,0.0,0.0,73,-99.99,,,-99.99,,2013-03-19 09:02:00,
2013-03-19 04:12:00,25.0,18.0,-100.00,NW,315,0.0,0.0,76,-99.99,,,-99.99,,2013-03-19 09:12:00,
2013-03-19 04:22:00,24.0,19.0,-100.00,NW,310,0.0,0.0,78,-99.99,,,-99.99,,2013-03-19 09:22:00,
2013-03-19 04:32:00,24.0,19.0,-100.00,NW,310,0.0,0.0,78,-99.99,,,-99.99,,2013-03-19 09:32:00,
2013-03-19 04:43:00,24.0,18.0,-100.00,NW,305,0.0,0.0,78,-99.99,,,-99.99,,2013-03-19 09:43:00,
2013-03-19 04:53:00,24.0,18.0,-100.00,WNW,295,0.0,0.0,78,-99.99,,,-99.99,,2013-03-19 09:53:00,
2013-03-19 05:03:00,24.0,18.0,-100.00,WNW,295,0.0,0.0,78,-99.99,,,-99.99,,2013-03-19 10:03:00,
2013-03-19 05:12:00,24.0,18.0,-100.00,WNW,300,0.0,0.0,78,-99.99,,,-99.99,,2013-03-19 10:12:00,
2013-03-19 05:23:00,24.0,18.0,-100.00,WNW,300,0.0,0.0,79,-99.99,,,-99.99,,2013-03-19 10:23:00,
2013-03-19 05:32:00,24.0,18.0,-100.00,WNW,300,0.0,0.0,79,-99.99,,,-99.99,,2013-03-19 10:32:00,
2013-03-19 05:42:00,24.0,18.0,-100.00,WNW,295,0.0,0.0,78,-99.99,,,-99.99,,2013-03-19 10:42:00,
2013-03-19 05:53:00,24.0,18.0,-100.00,WNW,290,0.0,0.0,80,-99.99,,,-99.99,,2013-03-19 10:53:00,
2013-03-19 06:02:00,24.0,18.0,-100.00,WNW,290,0.0,0.0,80,-99.99,,,-99.99,,2013-03-19 11:02:00,
2013-03-19 06:12:00,24.0,18.0,-100.00,WNW,300,0.0,0.0,78,-99.99,,,-99.99,,2013-03-19 11:12:00,
2013-03-19 06:22:00,24.0,18.0,-100.00,NW,305,0.0,0.0,78,-99.99,,,-99.99,,2013-03-19 11:22:00,
2013-03-19 06:32:00,24.0,18.0,-100.00,NW,305,0.0,0.0,78,-99.99,,,-99.99,,2013-03-19 11:32:00,
2013-03-19 06:42:00,23.0,17.0,-100.00,WNW,295,0.0,0.0,78,-99.99,,,-99.99,,2013-03-19 11:42:00,
2013-03-19 06:52:00,23.0,17.0,-100.00,WNW,295,0.0,0.0,78,-99.99,,,-99.99,,2013-03-19 11:52:00,
2013-03-19 07:02:00,23.0,17.0,-100.00,WNW,295,0.0,0.0,78,-99.99,,,-99.99,,2013-03-19 12:02:00,
2013-03-19 07:12:00,23.0,17.0,-100.00,WNW,300,0.0,0.0,77,-99.99,,,-99.99,,2013-03-19 12:12:00,
2013-03-19 07:22:00,23.0,16.0,-100.00,WNW,295,0.0,0.0,75,-99.99,,,-99.99,,2013-03-19 12:22:00,
2013-03-19 07:33:00,23.0,16.0,-100.00,WNW,295,0.0,0.0,75,-99.99,,,-99.99,,2013-03-19 12:33:00,
2013-03-19 07:42:00,23.0,16.0,-100.00,WNW,295,0.0,0.0,75,-99.99,,,-99.99,,2013-03-19 12:42:00,
2013-03-19 07:52:00,22.0,15.0,-100.00,NW,305,0.0,0.0,74,-99.99,,,-99.99,,2013-03-19 12:52:00,
2013-03-19 08:02:00,22.0,15.0,-100.00,NW,305,0.0,0.0,74,-99.99,,,-99.99,,2013-03-19 13:02:00,
2013-03-19 08:12:00,23.0,16.0,-100.00,NW,305,0.0,0.0,75,-99.99,,,-99.99,,2013-03-19 13:12:00,
2013-03-19 08:22:00,23.0,16.0,-100.00,NW,310,0.0,0.0,73,-99.99,,,-99.99,,2013-03-19 13:22:00,
2013-03-19 08:32:00,23.0,16.0,-100.00,NW,310,0.0,0.0,73,-99.99,,,-99.99,,2013-03-19 13:32:00,
2013-03-19 08:42:00,24.0,16.0,-100.00,NW,325,0.0,0.0,71,-99.99,,,-99.99,,2013-03-19 13:42:00,
2013-03-19 08:53:00,24.0,16.0,-100.00,WNW,290,0.0,0.0,70,-99.99,,,-99.99,,2013-03-19 13:53:00,
2013-03-19 09:02:00,24.0,16.0,-100.00,WNW,290,0.0,0.0,70,-99.99,,,-99.99,,2013-03-19 14:02:00,
2013-03-19 09:12:00,25.0,15.0,-100.00,NW,315,0.0,0.0,67,-99.99,,,-99.99,,2013-03-19 14:12:00,
2013-03-19 09:22:00,26.0,15.0,-100.00,NW,310,0.0,0.0,64,-99.99,,,-99.99,,2013-03-19 14:22:00,
2013-03-19 09:32:00,26.0,15.0,-100.00,NW,310,0.0,0.0,64,-99.99,,,-99.99,,2013-03-19 14:32:00,
2013-03-19 09:42:00,26.0,15.0,-100.00,WNW,300,0.0,0.0,63,-99.99,,,-99.99,,2013-03-19 14:42:00,
2013-03-19 09:52:00,27.0,16.0,-100.00,NW,305,0.0,0.0,63,-99.99,,,-99.99,,2013-03-19 14:52:00,
2013-03-19 10:02:00,27.0,16.0,-100.00,NW,305,0.0,0.0,63,-99.99,,,-99.99,,2013-03-19 15:02:00,
2013-03-19 10:12:00,28.0,16.0,-100.00,NW,315,0.0,0.0,62,-99.99,,,-99.99,,2013-03-19 15:12:00,
2013-03-19 10:22:00,28.0,16.0,-100.00,NW,305,0.0,0.0,60,-99.99,,,-99.99,,2013-03-19 15:22:00,
2013-03-19 10:34:00,28.0,16.0,-100.00,NW,305,0.0,0.0,60,-99.99,,,-99.99,,2013-03-19 15:34:00,
2013-03-19 10:43:00,28.0,16.0,-100.00,NW,305,0.0,0.0,60,-99.99,,,-99.99,,2013-03-19 15:43:00,
2013-03-19 10:53:00,29.0,16.0,-100.00,NW,315,0.0,0.0,57,-99.99,,,-99.99,,2013-03-19 15:53:00,
2013-03-19 11:04:00,29.0,16.0,-100.00,NW,315,0.0,0.0,57,-99.99,,,-99.99,,2013-03-19 16:04:00,
2013-03-19 11:13:00,30.0,15.0,-100.00,NW,315,0.0,0.0,53,-99.99,,,-99.99,,2013-03-19 16:13:00,
2013-03-19 11:24:00,32.0,16.0,-100.00,NW,315,0.0,0.0,51,-99.99,,,-99.99,,2013-03-19 16:24:00,
2013-03-19 11:34:00,32.0,16.0,-100.00,NW,315,0.0,0.0,51,-99.99,,,-99.99,,2013-03-19 16:34:00,
2013-03-19 11:44:00,31.0,15.0,-100.00,WNW,295,0.0,0.0,51,-99.99,,,-99.99,,2013-03-19 16:44:00,
2013-03-19 11:54:00,33.0,16.0,-100.00,West,280,0.0,0.0,49,-99.99,,,-99.99,,2013-03-19 16:54:00,
2013-03-19 12:03:00,33.0,16.0,-100.00,West,280,0.0,0.0,49,-99.99,,,-99.99,,2013-03-19 17:03:00,
2013-03-19 12:13:00,33.0,15.0,-100.00,WNW,300,0.0,0.0,47,-99.99,,,-99.99,,2013-03-19 17:13:00,
2013-03-19 12:23:00,33.0,14.0,-100.00,WNW,290,0.0,0.0,45,-99.99,,,-99.99,,2013-03-19 17:23:00,
2013-03-19 12:34:00,33.0,14.0,-100.00,WNW,290,0.0,0.0,45,-99.99,,,-99.99,,2013-03-19 17:34:00,
2013-03-19 12:44:00,34.0,15.0,-100.00,WNW,300,0.0,0.0,45,-99.99,,,-99.99,,2013-03-19 17:44:00,
2013-03-19 12:53:00,35.0,15.0,-100.00,NW,305,0.0,0.0,43,-99.99,,,-99.99,,2013-03-19 17:53:00,
2013-03-19 13:03:00,35.0,15.0,-100.00,NW,305,0.0,0.0,43,-99.99,,,-99.99,,2013-03-19 18:03:00,
2013-03-19 13:13:00,36.0,15.0,-100.00,NW,315,0.0,0.0,41,-99.99,,,-99.99,,2013-03-19 18:13:00,
2013-03-19 13:23:00,37.0,15.0,-100.00,NW,310,0.0,0.0,40,-99.99,,,-99.99,,2013-03-19 18:23:00,
2013-03-19 13:33:00,37.0,15.0,-100.00,NW,310,0.0,0.0,40,-99.99,,,-99.99,,2013-03-19 18:33:00,
2013-03-19 13:43:00,38.0,15.0,-100.00,NW,325,0.0,0.0,38,-99.99,,,-99.99,,2013-03-19 18:43:00,
2013-03-19 13:53:00,39.0,16.0,-100.00,WNW,300,0.0,0.0,39,-99.99,,,-99.99,,2013-03-19 18:53:00,
2013-03-19 14:02:00,39.0,16.0,-100.00,WNW,300,0.0,0.0,39,-99.99,,,-99.99,,2013-03-19 19:02:00,
2013-03-19 14:12:00,39.0,16.0,-100.00,NW,305,0.0,0.0,39,-99.99,,,-99.99,,2013-03-19 19:12:00,
2013-03-19 14:22:00,38.0,15.0,-100.00,West,275,0.0,0.0,39,-99.99,,,-99.99,,2013-03-19 19:22:00,
2013-03-19 14:33:00,38.0,15.0,-100.00,West,275,0.0,0.0,39,-99.99,,,-99.99,,2013-03-19 19:33:00,
2013-03-19 14:42:00,39.0,15.0,-100.00,WNW,295,0.0,0.0,37,-99.99,,,-99.99,,2013-03-19 19:42:00,
2013-03-19 14:53:00,39.0,15.0,-100.00,West,280,0.0,0.0,37,-99.99,,,-99.99,,2013-03-19 19:53:00,
2013-03-19 15:03:00,39.0,15.0,-100.00,West,280,0.0,0.0,37,-99.99,,,-99.99,,2013-03-19 20:03:00,
2013-03-19 15:12:00,39.0,15.0,-100.00,WNW,285,0.0,0.0,37,-99.99,,,-99.99,,2013-03-19 20:12:00,
2013-03-19 15:22:00,40.0,15.0,-100.00,WNW,285,0.0,0.0,36,-99.99,,,-99.99,,2013-03-19 20:22:00,
2013-03-19 15:32:00,40.0,15.0,-100.00,WNW,285,0.0,0.0,36,-99.99,,,-99.99,,2013-03-19 20:32:00,
2013-03-19 15:42:00,40.0,15.0,-100.00,West,270,0.0,0.0,35,-99.99,,,-99.99,,2013-03-19 20:42:00,
2013-03-19 15:53:00,40.0,14.0,-100.00,WNW,295,0.0,0.0,34,-99.99,,,-99.99,,2013-03-19 20:53:00,
2013-03-19 16:02:00,40.0,14.0,-100.00,WNW,295,0.0,0.0,34,-99.99,,,-99.99,,2013-03-19 21:02:00,
2013-03-19 16:12:00,41.0,16.0,-100.00,West,280,0.0,0.0,36,-99.99,,,-99.99,,2013-03-19 21:12:00,
2013-03-19 16:23:00,40.0,16.0,-100.00,WNW,295,0.0,0.0,36,-99.99,,,-99.99,,2013-03-19 21:23:00,
2013-03-19 16:34:00,40.0,16.0,-100.00,WNW,295,0.0,0.0,36,-99.99,,,-99.99,,2013-03-19 21:34:00,
2013-03-19 16:43:00,40.0,15.0,-100.00,West,275,0.0,0.0,36,-99.99,,,-99.99,,2013-03-19 21:43:00,
2013-03-19 16:53:00,41.0,16.0,-100.00,West,275,0.0,0.0,36,-99.99,,,-99.99,,2013-03-19 21:53:00,
2013-03-19 17:03:00,41.0,16.0,-100.00,West,275,0.0,0.0,36,-99.99,,,-99.99,,2013-03-19 22:03:00,
2013-03-19 17:13:00,42.0,16.0,-100.00,WNW,295,0.0,0.0,35,-99.99,,,-99.99,,2013-03-19 22:13:00,
2013-03-19 17:23:00,42.0,16.0,-100.00,West,275,0.0,0.0,35,-99.99,,,-99.99,,2013-03-19 22:23:00,
2013-03-19 17:33:00,42.0,16.0,-100.00,West,275,0.0,0.0,35,-99.99,,,-99.99,,2013-03-19 22:33:00,
2013-03-19 17:43:00,42.0,16.0,-100.00,West,280,0.0,0.0,35,-99.99,,,-99.99,,2013-03-19 22:43:00,
2013-03-19 17:53:00,42.0,16.0,-100.00,WNW,295,0.0,0.0,35,-99.99,,,-99.99,,2013-03-19 22:53:00,
2013-03-19 18:02:00,42.0,16.0,-100.00,WNW,295,0.0,0.0,35,-99.99,,,-99.99,,2013-03-19 23:02:00,
2013-03-19 18:12:00,41.0,16.0,-100.00,WNW,290,0.0,0.0,35,-99.99,,,-99.99,,2013-03-19 23:12:00,
2013-03-19 18:22:00,42.0,16.0,-100.00,WNW,290,0.0,0.0,35,-99.99,,,-99.99,,2013-03-19 23:22:00,
2013-03-19 18:32:00,42.0,16.0,-100.00,WNW,290,0.0,0.0,35,-99.99,,,-99.99,,2013-03-19 23:32:00,
2013-03-19 18:42:00,41.0,16.0,-100.00,West,280,0.0,0.0,35,-99.99,,,-99.99,,2013-03-19 23:42:00,
2013-03-19 18:53:00,41.0,16.0,-100.00,West,280,0.0,0.0,35,-99.99,,,-99.99,,2013-03-19 23:53:00,
2013-03-19 19:03:00,41.0,16.0,-100.00,West,280,0.0,0.0,35,-99.99,,,-99.99,,2013-03-20 00:03:00,
2013-03-19 19:13:00,41.0,16.0,-100.00,WNW,300,0.0,0.0,35,-99.99,,,-99.99,,2013-03-20 00:13:00,
2013-03-19 19:22:00,41.0,16.0,-100.00,WNW,285,0.0,0.0,37,-99.99,,,-99.99,,2013-03-20 00:22:00,
2013-03-19 19:33:00,41.0,16.0,-100.00,WNW,285,0.0,0.0,37,-99.99,,,-99.99,,2013-03-20 00:33:00,
2013-03-19 19:42:00,40.0,16.0,-100.00,WNW,285,0.0,0.0,38,-99.99,,,-99.99,,2013-03-20 00:42:00,
2013-03-19 19:52:00,38.0,16.0,-100.00,West,280,0.0,0.0,39,-99.99,,,-99.99,,2013-03-20 00:52:00,
2013-03-19 20:03:00,38.0,16.0,-100.00,West,280,0.0,0.0,39,-99.99,,,-99.99,,2013-03-20 01:03:00,
2013-03-19 20:12:00,37.0,16.0,-100.00,West,270,0.0,0.0,42,-99.99,,,-99.99,,2013-03-20 01:12:00,
2013-03-19 20:22:00,36.0,16.0,-100.00,WNW,290,0.0,0.0,43,-99.99,,,-99.99,,2013-03-20 01:22:00,
2013-03-19 20:32:00,36.0,16.0,-100.00,WNW,290,0.0,0.0,43,-99.99,,,-99.99,,2013-03-20 01:32:00,
2013-03-19 20:42:00,35.0,16.0,-100.00,WSW,245,0.0,0.0,45,-99.99,,,-99.99,,2013-03-20 01:42:00,
2013-03-19 20:53:00,35.0,16.0,-100.00,West,270,0.0,0.0,46,-99.99,,,-99.99,,2013-03-20 01:53:00,
2013-03-19 21:02:00,35.0,16.0,-100.00,West,270,0.0,0.0,46,-99.99,,,-99.99,,2013-03-20 02:02:00,
2013-03-19 21:12:00,34.0,16.0,-100.00,West,270,0.0,0.0,47,-99.99,,,-99.99,,2013-03-20 02:12:00,
2013-03-19 21:22:00,33.0,16.0,-100.00,West,280,0.0,0.0,49,-99.99,,,-99.99,,2013-03-20 02:22:00,
2013-03-19 21:32:00,33.0,16.0,-100.00,West,280,0.0,0.0,49,-99.99,,,-99.99,,2013-03-20 02:32:00,
2013-03-19 21:42:00,31.0,17.0,-100.00,West,265,0.0,0.0,56,-99.99,,,-99.99,,2013-03-20 02:42:00,
2013-03-19 21:53:00,30.0,19.0,-100.00,WNW,300,0.0,0.0,63,-99.99,,,-99.99,,2013-03-20 02:53:00,
2013-03-19 22:02:00,30.0,19.0,-100.00,WNW,300,0.0,0.0,63,-99.99,,,-99.99,,2013-03-20 03:02:00,
2013-03-19 22:12:00,30.0,19.0,-100.00,WNW,300,0.0,0.0,63,-99.99,,,-99.99,,2013-03-20 03:12:00,
2013-03-19 22:22:00,29.0,19.0,-100.00,WSW,250,0.0,0.0,67,-99.99,,,-99.99,,2013-03-20 03:22:00,
2013-03-19 22:34:00,29.0,19.0,-100.00,WSW,250,0.0,0.0,67,-99.99,,,-99.99,,2013-03-20 03:34:00,
2013-03-19 22:42:00,29.0,19.0,-100.00,WSW,250,0.0,0.0,67,-99.99,,,-99.99,,2013-03-20 03:42:00,